Showing default

YAOGAN 29, 41038

Orbit data source: Space-Track

YAOGAN 29, 41038 is a payload satellite owned by PLA GAD (CN) in SSO that was launched on Thu, 26 Nov 2015 UTC via a CHANG ZHENG 4C launch vehicle from the Taiyaun Space Center, China (TSC). Payload-class satellites include a variety of spacecraft equipped with specific instruments for various scientific and technological missions. These include communications satellites like Starlink; space stations such as the ISS; scientific satellites like the Hubble; Earth observation satellites from companies like Planet Labs, Umbra, and HawkEye 360; GPS; miniature CubeSats for education and research; and military/defense satellites.

Loading next visibility...
Identifier
41038, 2015-069A
Orbit
SSO
Country
Flag of CNCN / PRC
Related business
Manufacturer
SAST
Mission
Operational Defense Radar Imaging
Bus & Motor
JB-9, Unknown motor
Mass
1,040 kg wet, 1,040 kg dry
Launch date (UTC)
2015-11-26 (10 years ago)
Launch vehicle
CHANG ZHENG 4C
Launch site
Taiyaun Space Center, China (TSC)
Object type
Payload
Rocket body
Debris
Shape & HBR
Box + 2 Pan, 2.5 m
Radar Cross Section
4.795 m², Large (>1 m²)

Expand to show TLE details & history
Last TLE update: 5 hours ago

TLE from 5 hours ago
0 YAOGAN 29
1 41038U 15069A   26034.51815957  .00001040  00000-0  13476-3 0  9992
2 41038  98.0175  62.8510 0002927  92.9029 267.2519 14.82957518550812
Epoch: 2026-02-03T12:26Z
TLE epoch observation values (Epoch: 2026-02-03T12:26:08.986Z)
Latitude
-0.00007°
Longitude
102.61562°
Altitude
623.125 km
Speed
7.547 km/s
True Right ascension
04h 11m 24s
True Declination
0° 00' 00"
Sunlit
Object was in daylight at epoch
Visualization orbit readout
Latitude
Unknown
Longitude
Unknown
Altitude
Unknown
Speed
Unknown
Apparent Right ascension
Unknown
Apparent Declination
Unknown
Sunlit
N/A
Visualization observer readout
Local Sidereal Time
18:58:27
Azimuth
Unknown
Elevation
Unknown
Doppler factor
Unknown
Orbital elements
Apogee altitude
619.094 km
Perigee altitude
614.999 km
Semi-major axis
6,995.183 km
Eccentricity
0.00029
Inclination
98.0175°
RAAN
62.851°
Arg. of periapsis
92.9029°
True anomaly
267.2184°
Mean anomaly
267.2519°
Eccentric anomaly
267.23515°
Mean motion
3.70975 °/min
Orbital period
97.04 mins
BSTAR
0.00013476
Loading maneuver chart data...
Computing Atmospheric mass density...
Loading historical data...
Loading historical data...
Loading historical data...
Loading historical data...
Loading historical data...
Loading historical data...
Loading historical data...
Other satellites on launch #69 in the year 2015 (2015-11-26 UTC)

Documentation

Showing up to 5 results
|